Weather History for Scottsdale, AZ

Change the Weather History Date:

Friday, March 29, 2013

  Actual Average Record
Temperature  
Mean Temperature 70 °F -  
Max Temperature 84 °F 73 °F 91 °F (2004)
Min Temperature 57 °F 52 °F 37 °F (1998)
Cooling Degree Days 6    
Growing Degree Days 20 (Base 50)    
Moisture  
Dew Point 28 °F    
Average Humidity 22    
Maximum Humidity 47    
Minimum Humidity 9    
Precipitation  
Precipitation 0.00 in - - ()
Sea Level Pressure  
Sea Level Pressure 29.99 in    
Wind  
Wind Speed 1 mph (NW)    
Max Wind Speed 6 mph    
Max Gust Speed -    
Visibility 10 miles    
Events      
Averages and records for this station are not official NWS values.
T = Trace of Precipitation, MM = Missing Value Source: NWS Daily Summary

Daily Weather History Graph

Daily Weather History Graph

Search for Another Location

Airport:

Trip Planner

Search our weather history database for the weather conditions in past years. The results will help you decide how hot, cold, wet, or windy it might be!

Date:

Astronomy

Mar. 29, 2013 Rise Set
Actual Time 6:18 AM MST 6:46 PM MST
Civil Twilight 5:53 AM MST 7:11 PM MST
Nautical Twilight 5:24 AM MST 7:40 PM MST
Astronomical Twilight 4:54 AM MST 8:10 PM MST
Moon 9:40 PM MST (3/29) 7:39 AM MST (3/29)
Length of Visible Light 13h 17m
Length of Day
12h 27m
Waning Gibbous, 93% of the Moon is Illuminated
Mar 29
Waning Gibbous
Apr 2
Last Quarter
Apr 10
New
Apr 18
First Quarter
Apr 25
Full

Hourly Weather History & Observations

Time (MST) Temp. Dew Point Humidity Pressure Visibility Wind Dir Wind Speed Gust Speed Precip Events Conditions
12:53 AM 66.9 °F 32.0 °F 27% 29.97 in 10.0 mi Calm Calm - N/A   Clear
1:53 AM 66.9 °F 28.9 °F 24% 29.97 in 10.0 mi Calm Calm - N/A   Clear
2:53 AM 64.0 °F 32.0 °F 30% 29.96 in 10.0 mi Calm Calm - N/A   Clear
3:53 AM 61.0 °F 37.9 °F 42% 29.98 in 10.0 mi Calm Calm - N/A   Clear
4:53 AM 60.1 °F 37.9 °F 44% 29.99 in 10.0 mi Calm Calm - N/A   Clear
5:53 AM 59.0 °F 36.0 °F 42% 30.00 in 10.0 mi Calm Calm - N/A   Clear
6:53 AM 57.9 °F 37.9 °F 47% 30.02 in 10.0 mi Calm Calm - N/A   Clear
7:53 AM 64.0 °F 34.0 °F 33% 30.03 in 10.0 mi Calm Calm - N/A   Clear
8:53 AM 71.1 °F 33.1 °F 25% 30.04 in 10.0 mi Calm Calm - N/A   Clear
9:53 AM 75.9 °F 28.0 °F 17% 30.04 in 10.0 mi Calm Calm - N/A   Clear
10:53 AM 77.0 °F 26.1 °F 15% 30.05 in 10.0 mi NW 3.5 mph - N/A   Clear
11:53 AM 80.1 °F 23.0 °F 12% 30.04 in 10.0 mi West 4.6 mph - N/A   Clear
12:53 PM 81.0 °F 24.1 °F 12% 30.01 in 10.0 mi Calm Calm - N/A   Clear
1:53 PM 84.0 °F 21.9 °F 10% 29.99 in 10.0 mi SSW 3.5 mph - N/A   Clear
2:53 PM 84.0 °F 19.0 °F 9% 29.96 in 10.0 mi Variable 4.6 mph - N/A   Clear
3:53 PM 84.0 °F 19.9 °F 9% 29.95 in 10.0 mi Calm Calm - N/A   Clear
4:53 PM 84.0 °F 19.0 °F 9% 29.94 in 10.0 mi SSW 3.5 mph - N/A   Clear
5:53 PM 82.9 °F 19.0 °F 9% 29.94 in 10.0 mi Calm Calm - N/A   Clear
6:53 PM 81.0 °F 21.9 °F 11% 29.95 in 10.0 mi Calm Calm - N/A   Clear
7:53 PM 79.0 °F 23.0 °F 13% 29.96 in 10.0 mi Calm Calm - N/A   Clear
8:53 PM 75.9 °F 26.1 °F 16% 29.96 in 10.0 mi NE 5.8 mph - N/A   Clear
9:53 PM 73.0 °F 28.9 °F 20% 29.98 in 10.0 mi NNE 3.5 mph - N/A   Clear
10:53 PM 70.0 °F 30.0 °F 23% 29.99 in 10.0 mi NNE 3.5 mph - N/A   Clear
11:53 PM 69.1 °F 28.9 °F 22% 29.98 in 10.0 mi Calm Calm - N/A   Clear